Location: Unspecified
(48.7670°N, 0.0000°E)
Time: 22:11:48
(UTC+00:00)

Altair - Pass Details

Date: 01 July 2019
Orbit: 1501 x 1683 km, 47.2° (Epoch: 14 July)

Event Time Altitude Azimuth Distance (km) Brightness Sun altitude
Rises 14:43:59 0° 172° (S) 4,629 10.2 49.4°
Reaches altitude 10° 14:49:26 10° 145° (SE) 3,675 9.5 48.6°
Maximum altitude 14:52:52 13° 123° (ESE) 3,494 9.3 48.1°
Drops below altitude 10° 14:56:20 10° 101° (E) 3,723 9.3 47.5°
Sets 15:01:53 0° 75° (ENE) 4,753 9.7 46.7°
